Regional Weather Roundup
Issued by NWS

Home | Current Version | Previous Version | Graphics & Text | Print | Product List | Glossary On
Versions: 1 2 3 4 5 6 7 8 9 10 11 12 13 14 15 16 17 18 19 20 21 22 23 24 25 26 27 28 29 30 31 32 33 34 35 36 37 38 39 40 41 42 43 44 45 46 47 48 49 50
000
ASUS43 KLOT 241500
RWRIL

ILLINOIS REGIONAL WEATHER ROUNDUP
NATIONAL WEATHER SERVICE CHICAGO/ROMEOVILLE IL
1000 AM CDT FRI OCT 24 2014

NOTE: "FAIR" INDICATES FEW OR NO CLOUDS BELOW 12,000 FEET WITH NO
SIGNIFICANT WEATHER AND/OR OBSTRUCTIONS TO VISIBILITY.

* THESE STATIONS ARE NOT UNDER NWS QUALITY CONTROL. THEY ALSO MAY NOT
  REPORT WEATHER SUCH AS PRECIPITATION OR FOG.

ILZ001-002-007-009-015-016-024-241600-
NORTHWEST ILLINOIS

CITY           SKY/WX    TMP DP  RH WIND       PRES   REMARKS
MOLINE         FOG       54  52  93 SW7       30.06F VSB 3/4
STERLING*      CLOUDY    50  48  93 CALM      30.07F VSB 1/4
$$

ILZ003-004-008-010-011-017-018-241600-
NORTH CENTRAL ILLINOIS

CITY           SKY/WX    TMP DP  RH WIND       PRES   REMARKS
ROCKFORD       FOG       50  49  96 S3        30.09S VSB 1/2
$$

ILZ005-006-012>014-019>023-241600-
NORTHEAST ILLINOIS

CITY           SKY/WX    TMP DP  RH WIND       PRES   REMARKS
CHICAGO-OHARE  MOSUNNY   55  47  74 VRB3      30.06S
CHICAGO-MIDWAY MOSUNNY   57  48  72 VRB3      30.06F
AURORA         MOSUNNY   55  47  74 CALM      30.08S
WAUKEGAN       CLOUDY    51  48  89 VRB5      30.06R FOG
DUPAGE AIRPORT MOSUNNY   57  48  72 CALM      30.07R
WHEELING       SUNNY     57  49  74 W3        30.08S
NORTHERLY ISL    N/A     58  46  64 SW3         N/A
$$

LMZ740>746-241600-
SOUTHERN LAKE MICHIGAN

STATION/POSITION SKY/WX   TEMP    WIND        PRES    VSBY  WAVE
                          AIR SEA DIR/SP/G                  HT/PER
                          (F)     (DEG/KT/KT) (MB)    (MI)  (FT/S)
SOUTHERN BUOY              53 54  270/  8/ 10 1018.1R         1
WAUKEGAN HARBOR            52     290/  6/  9   N/A
HARRISON CRIB              54     270/  5/  7   N/A
BURNHAM HARBOR             56     190/  3/  9   N/A
CALUMET HARBOR             55     230/  5/  6 1016.9F
MICHIGAN CITY              53     180/  7/  8   N/A
$$

ILZ025>027-034>036-040-047-049-050-058-095>099-241600-
WEST-CENTRAL ILLINOIS

CITY           SKY/WX    TMP DP  RH WIND       PRES   REMARKS
QUINCY         FOG       55  55 100 S6        30.09S VSB<1/4
$$

ILZ028>032-037-038-041>044-048-051>054-059>061-241600-
CENTRAL ILLINOIS

CITY           SKY/WX    TMP DP  RH WIND       PRES   REMARKS
DECATUR        SUNNY     58  51  78 CALM      30.11R
PEORIA         FOG       53  51  93 SW3       30.09F VSB 1/8
SPRINGFIELD    FOG       55  54  96 SW3       30.12R VSB 1/4
TAYLORVILLE    NOT AVBL
$$

ILZ033-039-045-046-055>057-062-063-241600-
EAST-CENTRAL ILLINOIS

CITY           SKY/WX    TMP DP  RH WIND       PRES   REMARKS
CHAMPAIGN      MOSUNNY   56  50  80 SW3       30.10S
MATTOON        MOSUNNY   57  49  74 CALM      30.10S
$$

ILZ079-100>102-241600-
SOUTHWEST ILLINOIS

CITY           SKY/WX    TMP DP  RH WIND       PRES   REMARKS
ALTON          CLOUDY    57  55  94 W6        30.13R FOG
BELLEVILLE     MOSUNNY   59  57  94 NW5       30.12R FOG
CAHOKIA*       CLOUDY    58  53  84 SW3       30.13R
$$

ILZ064>066-069>071-074>076-080>082-084>086-088>090-092>094-241600-
SOUTH-CENTRAL ILLINOIS

CITY           SKY/WX    TMP DP  RH WIND       PRES   REMARKS
CARBONDALE     CLOUDY    58  50  75 SW3       30.13S
MARION         PTSUNNY   59  52  77 SW6       30.13F
MT. VERNON     PTSUNNY   54  48  82 SW3       30.13S
$$

ILZ067-068-072-073-078-083-087-091-241600-
SOUTHEAST ILLINOIS

CITY           SKY/WX    TMP DP  RH WIND       PRES   REMARKS
LAWRENCEVILLE  CLOUDY    56  48  74 S5        30.13S
$$

ABBREVIATIONS USED IN REMARKS
   TC - TEMPERATURE IN CELSIUS
  WCI - WIND CHILL INDEX
   HX - HEAT INDEX
  VSB - VISIBILITY
$$




USA.gov is the U.S. government's official web portal to all federal, state and local government web resources and services.